Suceava, Romania

6:17 PM EET on February 13, 2016 (GMT +0200)
Salcea

Weather History for LRSV - January, 2013

Change the Weather History Date:

Monday, January 21, 2013

  Actual Average Record
Temperature  
Mean Temperature 38 °F -  
Max Temperature 48 °F - - ()
Min Temperature 28 °F - - ()
Degree Days  
Heating Degree Days 27    
Moisture  
Dew Point 36 °F    
Average Humidity 82    
Maximum Humidity 100    
Minimum Humidity 71    
Precipitation  
Precipitation 0.00 in - - ()
Sea Level Pressure  
Sea Level Pressure 29.53 in    
Wind  
Wind Speed 8 mph ()    
Max Wind Speed 12 mph    
Max Gust Speed -    
Visibility 3.0 miles    
Events      
T = Trace of Precipitation, MM = Missing Value Source: Averaged Metar Reports

Daily Weather History Graph

Daily Weather History Graph

Search for Another Location

Airport or City:

Trip Planner

Search our weather history database for the weather conditions in past years. The results will help you decide how hot, cold, wet, or windy it might be!

Date:

Astronomy

Jan. 21, 2013 Rise Set
Actual Time 7:53 AM EET 4:59 PM EET
Civil Twilight 7:19 AM EET 5:33 PM EET
Nautical Twilight 6:41 AM EET 6:11 PM EET
Astronomical Twilight 6:05 AM EET 6:47 PM EET
Moon 12:25 PM EET (1/21) 3:04 AM EET (1/21)
Length of Visible Light 10h 13m
Length of Day
9h 05m
Waxing Gibbous, 72% of the Moon is Illuminated
Jan 21
Waxing Gibbous
Jan 27
Full
Feb 3
Last Quarter
Feb 10
New
Feb 17
First Quarter

Hourly Weather History & Observations

Time (EET) Temp. Windchill Dew Point Humidity Pressure Visibility Wind Dir Wind Speed Gust Speed Precip Events Conditions
12:00 AM 28.4 °F 21.2 °F 28.4 °F 100% 29.56 in 1.9 mi South 6.9 mph - N/A   Mist
1:00 AM 28.4 °F 23.3 °F 28.4 °F 100% 29.56 in 2.5 mi WSW 4.6 mph - N/A   Mist
2:00 AM 30.2 °F 20.8 °F 28.4 °F 93% 29.56 in 3.1 mi WSW 11.5 mph - N/A   Mist
3:00 AM 33.8 °F 26.4 °F 30.2 °F 87% 29.56 in 3.7 mi WSW 9.2 mph - N/A   Unknown
4:00 AM 33.8 °F 27.7 °F 32.0 °F 93% 29.53 in 3.7 mi SSW 6.9 mph - N/A   Unknown
5:00 AM 35.6 °F 27.5 °F 33.8 °F 93% 29.53 in - WSW 11.5 mph - N/A   Clear
5:30 AM 37.4 °F 29.8 °F 33.8 °F 87% 29.53 in - WSW 11.5 mph - N/A   Clear
6:00 AM 37.4 °F 29.8 °F 33.8 °F 87% 29.53 in - WSW 11.5 mph - N/A   Clear
6:30 AM 39.2 °F 33.0 °F 35.6 °F 87% 29.53 in - WSW 9.2 mph - N/A   Clear
7:00 AM 39.2 °F 32.0 °F 35.6 °F 87% 29.53 in - WSW 11.5 mph - N/A   Clear
7:30 AM 39.2 °F 32.0 °F 35.6 °F 87% 29.53 in - WSW 11.5 mph - N/A   Clear
8:00 AM 39.2 °F 32.0 °F 35.6 °F 87% 29.53 in - WSW 11.5 mph - N/A   Clear
8:30 AM 39.2 °F 32.0 °F 35.6 °F 87% 29.53 in - SSW 11.5 mph - N/A   Clear
9:00 AM 41.0 °F 34.3 °F 37.4 °F 87% 29.56 in - South 11.5 mph - N/A   Clear
9:30 AM 41.0 °F 34.3 °F 37.4 °F 87% 29.53 in - West 11.5 mph - N/A   Clear
10:00 AM 42.8 °F 36.6 °F 37.4 °F 81% 29.53 in - WSW 11.5 mph - N/A   Clear
10:30 AM 41.0 °F 34.3 °F 37.4 °F 87% 29.56 in - South 11.5 mph - N/A   Clear
11:00 AM 41.0 °F 35.2 °F 37.4 °F 87% 29.56 in - West 9.2 mph - N/A   Clear
11:30 AM 42.8 °F 37.5 °F 37.4 °F 81% 29.56 in - WSW 9.2 mph - N/A   Clear
12:00 PM 42.8 °F 37.5 °F 37.4 °F 81% 29.53 in - West 9.2 mph - N/A   Clear
12:30 PM 42.8 °F 37.5 °F 37.4 °F 81% 29.53 in - SW 9.2 mph - N/A   Clear
1:00 PM 48.2 °F - 39.2 °F 71% 29.53 in - WSW 6.9 mph - N/A   Clear
1:30 PM 48.2 °F - 39.2 °F 71% 29.53 in - Variable 2.3 mph - N/A   Clear
2:00 PM 44.6 °F 40.7 °F 37.4 °F 76% 29.53 in - SSE 6.9 mph - N/A   Clear
2:30 PM 41.0 °F 35.2 °F 35.6 °F 81% 29.53 in - South 9.2 mph - N/A   Clear
3:00 PM 44.6 °F 40.7 °F 37.4 °F 76% 29.53 in - South 6.9 mph - N/A   Clear
3:30 PM 46.4 °F 44.3 °F 37.4 °F 71% 29.53 in - SSW 4.6 mph - N/A   Clear
4:00 PM 42.8 °F 38.6 °F 37.4 °F 81% 29.53 in - South 6.9 mph - N/A   Clear
4:30 PM 46.4 °F 42.9 °F 37.4 °F 71% 29.53 in - WSW 6.9 mph - N/A   Clear
5:00 PM 46.4 °F 42.9 °F 37.4 °F 71% 29.53 in - WSW 6.9 mph - N/A   Clear
5:30 PM 44.6 °F - 35.6 °F 71% 29.53 in - Calm Calm - N/A   Clear
6:00 PM 44.6 °F 40.7 °F 37.4 °F 76% 29.50 in - South 6.9 mph - N/A   Clear
6:30 PM 42.8 °F 40.1 °F 37.4 °F 81% 29.50 in - SW 4.6 mph - N/A   Clear
7:00 PM 44.6 °F 40.7 °F 35.6 °F 71% 29.50 in - SSW 6.9 mph - N/A   Clear
7:30 PM 42.8 °F 38.6 °F 35.6 °F 76% 29.50 in - South 6.9 mph - N/A   Clear
8:00 PM 41.0 °F 35.2 °F 35.6 °F 81% 29.50 in - West 9.2 mph - N/A   Clear
8:30 PM 44.6 °F 40.7 °F 37.4 °F 76% 29.50 in - West 6.9 mph - N/A   Clear
9:00 PM 42.8 °F 37.5 °F 35.6 °F 76% 29.50 in - WSW 9.2 mph - N/A   Clear
10:00 PM 44.6 °F 39.7 °F 35.6 °F 71% 29.50 in - WSW 9.2 mph - N/A   Clear
11:00 PM 44.6 °F 40.7 °F 35.6 °F 71% 29.47 in - West 6.9 mph - N/A   Clear